Tracking 25963 objects as of 12-Aug-2022
HD Live streaming from Space Station
objects crossing your sky now

CZ-11 R/B

Track CZ-11 R/B now!
10-day predictions


NORAD ID: 43872
Int'l Code: 2018-108B
Perigee: 651.9 km
Apogee: 1,143.6 km
Inclination: 100.4 °
Period: 102.8 minutes
Semi major axis: 7268 km
RCS: Unknown
Launch date: December 21, 2018
Source: People's Republic of China (PRC)
Launch site: Jiuquan Satellite Launch Center, China (JSC)

Note: This is a ROCKET BODY
aabbcc
Your satellite tracking list
Your tracking list is empty




NASA's NSSDC Master Catalog

Two Line Element Set (TLE):
1 43872U 18108B   22223.54944749 -.00000136  00000-0 -30407-4 0  9999
2 43872 100.4110  74.8593 0338225  44.3685 318.4053 14.00922985186012
Source of the keplerian elements: AFSPC